Content
SEND FEEDBACK

Daily
Averages
Monthly
Summary
United States of America

SUNDANCE, WYOMING


Home > North America > United States > Wyoming
Elevation: 4908 feet     Latitude: 44 24N     Longitude: 104 21W

WEATHER
 
SELECT A DAY
Number of Records: 227,796;   Date Range: 1/2/95 - 9/16/14
 
SHARE

PRINT THIS DATA

[ ← Previous Day ]
WEATHER ALMANAC - JUNE 12, 2013
[ Next Day → ]
[ °C ]   °F
Weather ElementAverageHighLow
Temperature57.1 °F64.4 °F (3:35 pm)50 °F (5:55 am)
Dewpoint52.4 °F55.4 °F (1:55 am)48.2 °F (9:55 am)
Humidity85.4 %100 % (12:35 am)63 % (2:15 pm)
Barometer30.11 in30.20 in (12:15 pm)29.96 in (2:35 am)
Wind Speed9.6 mph18.4 mph (5:35 pm)
Wind Gust25.3 mph (1:35 am)
Weather ElementAverage
Visibility9.3 mi
Wind DirectionS (182 °)

Weather ElementTotal
Precipitation---
Heating Degree Days7.8 (Base 65)
Growing Degree Days7.2 (Base 50)
Averaged from 71 records on June 12, 2013
WEATHER CONDITIONS BREAKOUT
WIND DIRECTION BREAKOUT
WEATHER BY HOUR - JUNE 12, 2013
[ °C ]   °F
Local TimeTemperatureDewpointHumidityBarometerVisibilityWind DirectionWind SpeedGust SpeedPrecipitationEventsConditions
12:35 AM53.6 °F53.6 °F100 %29.98 in10.0 miCalmClear
12:55 AM53.6 °F53.6 °F100 %29.98 in10.0 miWest (270°)6.9 mphClear
1:15 AM57.2 °F53.6 °F88 %29.99 in10.0 miWest (270°)6.9 mphClear
1:35 AM59.0 °F53.6 °F82 %29.99 in10.0 miWNW (290°)17.3 mph25.3 mphClear
1:55 AM57.2 °F55.4 °F94 %29.99 in10.0 miWNW (300°)15.0 mph23.0 mphMostly Cloudy
2:15 AM57.2 °F55.4 °F94 %29.98 in10.0 miWest (280°)10.4 mph19.6 mphMostly Cloudy
2:35 AM55.4 °F55.4 °F100 %29.96 in10.0 miWest (270°)9.2 mphPartly Cloudy
2:55 AM57.2 °F55.4 °F94 %29.98 in10.0 miWNW (290°)8.1 mphClear
3:15 AM57.2 °F55.4 °F94 %29.97 in10.0 miWest (280°)6.9 mphClear
3:35 AM55.4 °F55.4 °F100 %29.99 in8.0 miNW (310°)10.4 mphMostly Cloudy
3:55 AM53.6 °F53.6 °F100 %30.01 in1.0 miNW (310°)11.5 mph18.4 mphOvercast
4:15 AM53.6 °F53.6 °F100 %30.01 in10.0 miNW (310°)8.1 mphScattered Clouds
4:35 AM53.6 °F53.6 °F100 %30.01 in7.0 miWNW (290°)5.8 mphClear
4:55 AM53.6 °F53.6 °F100 %30.02 in10.0 miWNW (300°)6.9 mphPartly Cloudy
5:15 AM53.6 °F53.6 °F100 %30.03 in1.5 miWest (280°)5.8 mphOvercast
5:35 AM51.8 °F51.8 °F100 %30.05 in5.0 miWNW (290°)8.1 mphOvercast
5:55 AM50.0 °F50.0 °F100 %30.06 in4.0 miWNW (290°)8.1 mphOvercast
6:15 AM50.0 °F50.0 °F100 %30.05 in3.0 miWSW (250°)5.8 mphOvercast
6:35 AM50.0 °F50.0 °F100 %30.08 in5.0 miNNW (340°)6.9 mphOvercast
6:55 AM50.0 °F50.0 °F100 %30.08 in10.0 miNW (310°)5.8 mphOvercast
7:15 AM50.0 °F50.0 °F100 %30.09 in9.0 miWNW (290°)4.6 mphOvercast
7:35 AM50.0 °F50.0 °F100 %30.11 in10.0 miWNW (290°)5.8 mphMostly Cloudy
7:55 AM50.0 °F50.0 °F100 %30.11 in10.0 miWest (270°)6.9 mphMostly Cloudy
8:15 AM50.0 °F50.0 °F100 %30.12 in10.0 miNW (320°)6.9 mphMostly Cloudy
8:35 AM50.0 °F50.0 °F100 %30.12 in10.0 miNW (310°)8.1 mphMostly Cloudy
8:55 AM50.0 °F50.0 °F100 %30.13 in10.0 miNW (310°)4.6 mphOvercast
9:15 AM50.0 °F50.0 °F100 %30.14 in10.0 miNorth (360°)4.6 mphMostly Cloudy
9:35 AM50.0 °F50.0 °F100 %30.14 in9.0 miCalmMostly Cloudy
9:55 AM51.8 °F48.2 °F88 %30.15 in8.0 miCalmOvercast
10:15 AM51.8 °F48.2 °F88 %30.16 in10.0 miCalmOvercast
10:35 AM53.6 °F50.0 °F88 %30.17 in10.0 miCalmOvercast
10:55 AM53.6 °F50.0 °F88 %30.17 in10.0 miESE (110°)4.6 mphOvercast
11:15 AM53.6 °F50.0 °F88 %30.18 in10.0 miSSE (160°)4.6 mphOvercast
11:35 AM55.4 °F50.0 °F82 %30.18 in10.0 miSSE (150°)4.6 mphOvercast
11:55 AM55.4 °F50.0 °F82 %30.19 in10.0 miSE (140°)4.6 mphOvercast
12:15 PM55.4 °F50.0 °F82 %30.20 in10.0 miSE (130°)3.5 mphOvercast
12:35 PM55.4 °F50.0 °F82 %30.20 in10.0 miESE (120°)6.9 mphOvercast
12:55 PM55.4 °F50.0 °F82 %30.19 in10.0 miEast (100°)9.2 mphOvercast
1:15 PM57.2 °F51.8 °F82 %30.19 in10.0 miSSE (150°)6.9 mphOvercast
1:35 PM59.0 °F51.8 °F77 %30.18 in10.0 miSE (140°)9.2 mph16.1 mphMostly Cloudy
1:55 PM60.8 °F51.8 °F72 %30.18 in10.0 miEast (100°)8.1 mphScattered Clouds
2:15 PM62.6 °F50.0 °F63 %30.18 in10.0 miEast (100°)13.8 mph17.3 mphOvercast
2:35 PM62.6 °F50.0 °F63 %30.18 in10.0 miEast (100°)12.7 mph17.3 mphOvercast
2:55 PM62.6 °F53.6 °F72 %30.17 in10.0 miEast (90°)13.8 mph20.7 mphMostly Cloudy
3:15 PM62.6 °F51.8 °F68 %30.16 in10.0 miEast (100°)15.0 mphPartly Cloudy
3:35 PM64.4 °F51.8 °F64 %30.16 in10.0 miEast (100°)15.0 mph20.7 mphClear
3:55 PM64.4 °F53.6 °F68 %30.16 in10.0 miEast (100°)16.1 mph19.6 mphClear
4:15 PM64.4 °F53.6 °F68 %30.16 in10.0 miEast (90°)15.0 mph19.6 mphClear
4:35 PM64.4 °F53.6 °F68 %30.15 in10.0 miEast (90°)13.8 mphClear
4:55 PM64.4 °F53.6 °F68 %30.15 in10.0 miEast (90°)15.0 mph23.0 mphClear
5:15 PM64.4 °F53.6 °F68 %30.14 in10.0 miEast (90°)17.3 mph24.2 mphClear
5:35 PM64.4 °F53.6 °F68 %30.13 in10.0 miEast (90°)18.4 mph24.2 mphClear
5:55 PM64.4 °F53.6 °F68 %30.12 in10.0 miEast (90°)18.4 mphClear
6:15 PM64.4 °F53.6 °F68 %30.11 in10.0 miEast (100°)17.3 mph24.2 mphClear
6:35 PM64.4 °F53.6 °F68 %30.10 in10.0 miEast (100°)18.4 mph24.2 mphClear
6:55 PM64.4 °F53.6 °F68 %30.10 in10.0 miESE (110°)18.4 mph24.2 mphClear
7:15 PM64.4 °F53.6 °F68 %30.10 in10.0 miEast (100°)16.1 mph21.9 mphClear
7:35 PM64.4 °F53.6 °F68 %30.09 in10.0 miEast (90°)16.1 mph21.9 mphClear
7:55 PM60.8 °F53.6 °F77 %30.09 in10.0 miEast (100°)16.1 mph21.9 mphClear
8:15 PM59.0 °F53.6 °F82 %30.10 in10.0 miESE (110°)17.3 mph23.0 mphClear
8:35 PM59.0 °F53.6 °F82 %30.10 in10.0 miEast (100°)15.0 mphClear
8:55 PM59.0 °F53.6 °F82 %30.11 in10.0 miESE (110°)12.7 mphClear
9:15 PM59.0 °F53.6 °F82 %30.13 in10.0 miEast (100°)11.5 mphClear
9:35 PM59.0 °F53.6 °F82 %30.19 in10.0 miNW (310°)3.5 mphScattered Clouds
9:55 PM59.0 °F53.6 °F82 %30.10 in10.0 miESE (120°)12.7 mphRainLight Rain
10:15 PM57.2 °F53.6 °F88 %30.11 in10.0 miESE (120°)15.0 mph24.2 mphClear
10:35 PM59.0 °F51.8 °F77 %30.10 in10.0 miESE (120°)10.4 mph19.6 mphClear
10:55 PM60.8 °F53.6 °F77 %30.16 in10.0 miNW (310°)11.5 mph17.3 mphThunderstormScattered Clouds
11:15 PM57.2 °F55.4 °F94 %30.18 in10.0 miWNW (290°)6.9 mph16.1 mphMostly Cloudy
11:35 PM57.2 °F53.6 °F88 %30.20 in10.0 miWest (270°)9.2 mphMostly Cloudy
11:55 PM57.2 °F55.4 °F94 %30.19 in10.0 miWSW (250°)3.5 mphOvercast
Hourly data recorded from KSPF, located miles away from Sundance, Wyoming







STORIES FROM OUR PARTNERS